Weather History for KFSO - January, 2014

Change the Weather History Date:

Thursday, January 16, 2014

  Actual Average (KPBG) Record (KPBG)
Temperature  
Mean Temperature 32 °F 16 °F  
Max Temperature 35 °F 27 °F 53 °F (1953)
Min Temperature 28 °F 6 °F -24 °F (2009)
Degree Days  
Heating Degree Days 34 49  
Month to date heating degree days 759  
Since 1 July heating degree days 3645  
Cooling Degree Days 0 0  
Month to date cooling degree days 0  
Year to date cooling degree days 0  
Moisture  
Dew Point 25 °F    
Average Humidity 77    
Maximum Humidity 86    
Minimum Humidity 64    
Precipitation  
Precipitation 0.00 in - 0.41 in (1959)
Month to date precipitation  
Year to date precipitation  
Sea Level Pressure  
Sea Level Pressure 29.94 in    
Wind  
Wind Speed 2 mph (NNE)    
Max Wind Speed 7 mph    
Max Gust Speed -    
Visibility 9 miles    
Events Snow    
T = Trace of Precipitation, MM = Missing Value Source: NWS Daily Summary

Daily Weather History Graph

Daily Weather History Graph

Search for Another Location

Airport or City:

Trip Planner

Search our weather history database for the weather conditions in past years. The results will help you decide how hot, cold, wet, or windy it might be!

Date:

Astronomy

Jan. 16, 2014 Rise Set
Actual Time 7:26 AM EST 4:38 PM EST
Civil Twilight 6:53 AM EST 5:11 PM EST
Nautical Twilight 6:17 AM EST 5:47 PM EST
Astronomical Twilight 5:42 AM EST 6:22 PM EST
Moon 5:32 PM EST (1/16) 7:14 AM EST (1/16)
Length of Visible Light 10h 17m
Length of Day
9h 12m
Full, 100% of the Moon is Illuminated
Jan 16
Full
Jan 24
Last Quarter
Jan 30
New
Feb 6
First Quarter
Feb 14
Full

Hourly Weather History & Observations

Time (EST) Temp. Windchill Dew Point Humidity Pressure Visibility Wind Dir Wind Speed Gust Speed Precip Events Conditions
12:15 AM 35.4 °F 32.6 °F 25.2 °F 66% 29.95 in 4.0 mi NW 3.5 mph - N/A Snow Light Snow
12:35 AM 33.1 °F - 23.9 °F 69% 29.95 in 7.0 mi Calm Calm - N/A Snow Light Snow
12:55 AM 33.1 °F - 25.3 °F 73% 29.95 in 4.0 mi Calm Calm - N/A Snow Light Snow
1:15 AM 32.0 °F - 25.2 °F 76% 29.95 in 5.0 mi Calm Calm - N/A Snow Light Snow
1:35 AM 32.0 °F 28.7 °F 26.2 °F 79% 29.94 in 10.0 mi SE 3.5 mph - N/A   Overcast
1:55 AM 31.6 °F 26.0 °F 26.6 °F 82% 29.95 in 10.0 mi SE 5.8 mph - N/A   Overcast
2:15 AM 32.0 °F 28.7 °F 27.1 °F 82% 29.95 in 10.0 mi SE 3.5 mph - N/A   Overcast
2:35 AM 32.0 °F 26.4 °F 27.1 °F 82% 29.94 in 10.0 mi ESE 5.8 mph - N/A   Overcast
2:55 AM 32.0 °F 28.7 °F 27.1 °F 82% 29.94 in 10.0 mi ESE 3.5 mph - N/A   Overcast
3:15 AM 32.0 °F 28.7 °F 27.1 °F 82% 29.94 in 10.0 mi ESE 3.5 mph - N/A   Overcast
3:35 AM 32.0 °F - 27.1 °F 82% 29.94 in 10.0 mi Calm Calm - N/A   Overcast
3:55 AM 32.0 °F - 27.1 °F 82% 29.94 in 10.0 mi Calm Calm - N/A   Overcast
4:15 AM 32.0 °F - 27.1 °F 82% 29.93 in 10.0 mi Calm Calm - N/A   Overcast
4:35 AM 32.0 °F 27.5 °F 27.3 °F 83% 29.93 in 10.0 mi East 4.6 mph - N/A   Overcast
4:55 AM 32.0 °F - 27.5 °F 83% 29.96 in 10.0 mi Calm Calm - N/A   Overcast
5:15 AM 32.0 °F - 27.5 °F 83% 29.96 in 10.0 mi Calm Calm - N/A   Overcast
5:35 AM 32.0 °F - 27.9 °F 85% 29.97 in 10.0 mi Calm Calm - N/A   Overcast
5:55 AM 32.0 °F - 27.5 °F 83% 29.95 in 10.0 mi Calm Calm - N/A   Overcast
6:15 AM 32.0 °F - 26.6 °F 80% 29.95 in 10.0 mi Calm Calm - N/A   Overcast
6:35 AM 32.0 °F - 25.5 °F 77% 29.96 in 10.0 mi Calm Calm - N/A   Overcast
6:55 AM 31.6 °F - 25.2 °F 77% 29.97 in 7.0 mi Calm Calm - N/A Snow Light Snow
7:15 AM 30.9 °F - 25.2 °F 79% 29.96 in 10.0 mi Calm Calm - N/A   Overcast
7:35 AM 30.9 °F 27.5 °F 25.7 °F 81% 29.94 in 10.0 mi East 3.5 mph - N/A   Overcast
7:55 AM 30.9 °F 27.5 °F 25.7 °F 81% 29.95 in 10.0 mi SE 3.5 mph - N/A   Overcast
8:15 AM 30.9 °F 27.5 °F 25.7 °F 81% 29.94 in 10.0 mi East 3.5 mph - N/A   Overcast
8:35 AM 31.1 °F - 25.7 °F 80% 29.95 in 10.0 mi Calm Calm - N/A   Overcast
8:55 AM 32.0 °F - 27.0 °F 82% 29.96 in 10.0 mi Calm Calm - N/A   Overcast
9:15 AM 32.0 °F - 27.3 °F 83% 29.95 in 10.0 mi Calm Calm - N/A   Overcast
9:35 AM 33.1 °F - 28.0 °F 82% 29.96 in 10.0 mi Calm Calm - N/A   Overcast
9:55 AM 33.1 °F - 27.3 °F 79% 29.98 in 10.0 mi Calm Calm - N/A   Overcast
10:15 AM 33.4 °F - 26.8 °F 77% 29.97 in 10.0 mi Calm Calm - N/A   Overcast
10:35 AM 33.3 °F - 25.2 °F 72% 29.97 in 10.0 mi Calm Calm - N/A   Overcast
10:55 AM 33.1 °F - 23.9 °F 69% 29.98 in 10.0 mi Calm Calm - N/A   Overcast
11:15 AM 33.3 °F 27.1 °F 24.6 °F 71% 29.97 in 10.0 mi NNW 6.9 mph - N/A   Overcast
11:35 AM 33.1 °F 30.0 °F 26.4 °F 77% 29.96 in 4.0 mi North 3.5 mph - N/A Snow Light Snow
11:55 AM 33.1 °F 26.9 °F 27.0 °F 78% 29.96 in 5.0 mi North 6.9 mph - N/A Snow Light Snow
12:15 PM 33.1 °F 27.7 °F 27.1 °F 79% 29.97 in 7.0 mi NNW 5.8 mph - N/A Snow Light Snow
12:35 PM 33.1 °F 26.9 °F 25.9 °F 75% 29.96 in 10.0 mi NW 6.9 mph - N/A   Overcast
12:55 PM 33.1 °F 26.9 °F 27.0 °F 78% 29.95 in 5.0 mi North 6.9 mph - N/A   Haze
1:15 PM 33.1 °F 27.7 °F 25.9 °F 75% 29.95 in 10.0 mi NNW 5.8 mph - N/A   Overcast
1:35 PM 33.1 °F 26.9 °F 25.2 °F 73% 29.94 in 10.0 mi North 6.9 mph - N/A   Overcast
1:55 PM 33.1 °F 26.9 °F 24.6 °F 71% 29.95 in 10.0 mi North 6.9 mph - N/A   Overcast
2:15 PM 32.0 °F 25.6 °F 23.4 °F 70% 29.93 in 10.0 mi NNE 6.9 mph - N/A   Overcast
2:35 PM 33.1 °F 27.7 °F 23.2 °F 67% 29.94 in 10.0 mi North 5.8 mph - N/A   Overcast
2:55 PM 33.1 °F 28.7 °F 22.8 °F 66% 29.94 in 10.0 mi North 4.6 mph - N/A Snow Light Snow
3:55 PM 32.2 °F 25.8 °F 22.1 °F 66% 29.93 in 10.0 mi North 6.9 mph - N/A   Overcast
4:15 PM 32.0 °F 25.6 °F 21.0 °F 64% 29.92 in 10.0 mi North 6.9 mph - N/A   Overcast
4:35 PM 32.0 °F 26.4 °F 21.6 °F 65% 29.93 in 10.0 mi NNE 5.8 mph - N/A   Overcast
4:55 PM 32.0 °F - 21.9 °F 66% 29.93 in 10.0 mi Calm Calm - N/A   Overcast
5:15 PM 32.0 °F 28.7 °F 22.1 °F 67% 29.93 in 10.0 mi NNE 3.5 mph - N/A   Overcast
5:35 PM 31.6 °F 28.3 °F 22.1 °F 68% 29.92 in 10.0 mi NNE 3.5 mph - N/A   Overcast
5:55 PM 31.5 °F - 22.1 °F 68% 29.93 in 10.0 mi Calm Calm - N/A   Overcast
6:15 PM 31.6 °F 28.3 °F 22.6 °F 69% 29.93 in 10.0 mi NNE 3.5 mph - N/A   Overcast
6:35 PM 31.1 °F 27.7 °F 22.3 °F 70% 29.92 in 10.0 mi North 3.5 mph - N/A   Overcast
6:55 PM 30.9 °F - 22.5 °F 71% 29.93 in 10.0 mi Calm Calm - N/A   Overcast
7:15 PM 30.9 °F - 22.5 °F 71% 29.93 in 10.0 mi Calm Calm - N/A   Mostly Cloudy
7:35 PM 30.9 °F - 23.0 °F 72% 29.93 in 10.0 mi Calm Calm - N/A   Clear
7:55 PM 30.9 °F - 23.9 °F 75% 29.93 in 10.0 mi Calm Calm - N/A   Scattered Clouds
8:15 PM 28.6 °F - 22.6 °F 78% 29.93 in 10.0 mi Calm Calm - N/A   Mostly Cloudy
8:35 PM 30.9 °F - 25.0 °F 79% 29.93 in 10.0 mi Calm Calm - N/A   Scattered Clouds
8:55 PM 28.8 °F - 23.4 °F 80% 29.93 in 10.0 mi Calm Calm - N/A   Clear
9:15 PM 28.4 °F - 23.5 °F 82% 29.94 in 10.0 mi Calm Calm - N/A   Scattered Clouds
9:35 PM 28.4 °F - 23.9 °F 83% 29.93 in 7.0 mi Calm Calm - N/A   Overcast
9:55 PM 28.4 °F - 24.3 °F 84% 29.93 in 7.0 mi Calm Calm - N/A   Overcast
10:15 PM 28.4 °F - 24.6 °F 86% 29.93 in 7.0 mi Calm Calm - N/A   Overcast
10:35 PM 29.1 °F - 25.3 °F 86% 29.93 in 7.0 mi Calm Calm - N/A   Overcast
10:55 PM 30.9 °F - 27.1 °F 86% 29.92 in 7.0 mi Calm Calm - N/A   Overcast
11:15 PM 30.9 °F - 26.6 °F 84% 29.92 in 7.0 mi Calm Calm - N/A   Overcast
11:35 PM 30.9 °F - 26.6 °F 84% 29.92 in 7.0 mi Calm Calm - N/A   Overcast
11:55 PM 30.9 °F - 26.6 °F 84% 29.92 in 7.0 mi Calm Calm - N/A   Overcast